Regional Weather Roundup
Issued by NWS Goodland, KS

Home | Current Version | Previous Version | Text Only | Print | Product List | Glossary On
Versions: 1 2 3 4 5 6 7 8 9 10 11 12 13 14 15 16 17 18 19 20 21 22 23 24 25 26 27 28 29 30 31 32 33 34 35 36 37 38 39 40 41 42 43 44 45 46 47 48 49 50
000
ASUS43 KGLD 230408
RWRGLD

GOODLAND FORECAST AREA HOURLY WEATHER ROUNDUP
NATIONAL WEATHER SERVICE GOODLAND KS
1000 PM MDT MON SEP 22 2014

...OFFICIAL OBSERVATIONS...

CITY           SKY/WX    TMP DP  RH WIND       PRES   REMARKS
GOODLAND KS    CLOUDY    61  57  87 N15G33    30.14R
HILL CITY KS   CLOUDY    68  47  46 S10       30.12S
IMPERIAL NEB   CLOUDY    62  53  72 S14       30.06R
MCCOOK NEB     LGT RAIN  61  55  81 SE15G28   30.10F
AKRON CO       MOCLDY    60  55  83 S10       30.07S
BURLINGTON CO  CLOUDY    63  55  75 NE12      30.12R
LIMON CO       LGT RAIN  58  53  84 W5        30.13F
$$

...UNOFFICIAL OBSERVATIONS...

CITY           SKY/WX    TMP DP  RH WIND       PRES   REMARKS
COLBY KS       LGT RAIN  64  55  72 SE5       30.12R
GOVE KS          N/A     70  32  24 MISG        N/A
NORTON KS      MOCLDY    64  43  45 SE12      30.10F
SHARON SPRINGS   N/A     68  53  58 S15G24      N/A
WAKEENEY KS      N/A     67  40  36 MISG        N/A
KIT CARSON CO    N/A     67  58  72 N10         N/A
YUMA CO          N/A     60  56  86 S8G17       N/A
$$


USA.gov is the U.S. government's official web portal to all federal, state and local government web resources and services.